Погода в Калининской

Россия / Краснодарский край     45°29′08″N   38°39′42″E
темп.,
°C
ветер,
м/с
пор.,
м/с
влажн.,
%
обл.,
%
осадки,
мм/ч
давл.,
гПа
погр.,
м
27 января, чт
чт2700:00−2с1298100 0.2 101875
03:00−2ссв119998 0.6 101926
06:00−3ссв1298100 0.6 101945
09:00−4св119894 0.6 102033
12:00−1зюз119159 0.0 1020327
15:00−1з338665 0.1 1020557
18:00−5юз22945 0.0 102110
21:00−5юз359594 0.0 102188
28 января, пт
пт2800:00−4юз369597 0.0 1021113
03:00−5зюз379499 0.0 1021119
06:00−5юз369283 0.0 102198
09:00−5юз24917 0.0 102168
12:000ююз36976 0.0 1021290
15:00+1ююз25100100 0.0 1019223
18:00+1ююз41197100 0.0 1019387
21:00+2ююз61396100 0.3 1018614
29 января, сб
сб2900:00+2ююз8169699 0.8 1018728
03:00+3ююз91781100 0.8 1017771
06:00+3ююз9188086 0.0 1016847
09:00+2юз71399100 3.3 1018690
12:00+5юз7118985 1.1 1018609
15:00+4з5109481 2.5 1018563
18:00+2з4108651 0.0 1020373
21:00+1зюз5118424 0.0 1021385
30 января, вс
вс3000:000зюз4108770 0.0 1021271
03:000юз510875 0.0 1021293
06:000зюз410847 0.0 1021288
09:00+1юз5108080 0.0 1020550
12:00+3зюз6107323 0.0 1019969
15:00+5юз8136631 0.1 10161580
18:00+3ююз71577100 0.1 1015644
21:00+3ююз71678100 0.1 1013725
31 января, пн
пн3100:00+4ююз111972100 0.1 10101228
03:00+4ююз122080100 0.3 10081259
06:00+4ююз111996100 1.4 10071258
09:00+4юз71483100 2.4 1008876
12:00+7зюз81569100 0.1 10091616
15:00+6зюз81469100 0.6 10091669
18:00+3з81280100 0.1 1012888
21:00+3з8137199 0.1 10141242